Regional Weather Roundup
Issued by NWS Little Rock, AR

Home | Current Version | Previous Version | Text Only | Print | Product List | Glossary On
Versions: 1 2 3 4 5 6 7 8 9 10 11 12 13 14 15 16 17 18 19 20 21 22 23 24 25 26 27 28 29 30 31 32 33 34 35 36 37 38 39 40 41 42 43 44 45 46 47 48 49 50
405
ASUS44 KLZK 200705
RWRLZK

WEATHER ROUNDUP FOR ARKANSAS
NATIONAL WEATHER SERVICE LITTLE ROCK AR
100 AM CST MON FEB 20 2017

NOTE: "FAIR" INDICATES FEW OR NO CLOUDS BELOW 12,000 FEET WITH NO
SIGNIFICANT WEATHER AND/OR OBSTRUCTIONS TO VISIBILITY.

ARZ001-003-010-029-200800-
NORTHWEST ARKANSAS

CITY           SKY/WX    TMP DP  RH WIND       PRES   REMARKS
FAYETTEVILLE   CLOUDY    67  51  56 SE12      29.95F
FORT SMITH     CLEAR     66  51  58 E8        29.93S
HARRISON       MOCLDY    57  56  96 E8        30.01S
BENTONVILLE    PTCLDY    63  52  67 SE10      29.96S
ROGERS         MOCLDY    63  54  72 E12       29.95F
SILOAM SPGS    PTCLDY    64  48  55 S14       29.94S
HIGHFILL       PTCLDY    64  51  62 SE10      29.94S
$$

ARZ004-005-016-200800-
NORTH CENTRAL ARKANSAS

CITY           SKY/WX    TMP DP  RH WIND       PRES   REMARKS
BATESVILLE     MOCLDY    57  54  88 SE7       30.04S
FLIPPIN        MOCLDY    55  48  76 CALM      30.00S
MTN HOME       PTCLDY    58  55  90 S8        30.01R
$$

ARZ040-041-200800-
WEST CENTRAL ARKANSAS

CITY           SKY/WX    TMP DP  RH WIND       PRES   REMARKS
MENA           CLOUDY    70  61  73 SE6       29.96F
MOUNT IDA      MOCLDY    61  54  77 CALM      29.96R
$$

ARZ009-017-025-026-028-200800-
NORTHEAST ARKANSAS

CITY           SKY/WX    TMP DP  RH WIND       PRES   REMARKS
CORNING        FAIR      54  54 100 SE6       30.05F
JONESBORO      PTCLDY    55  51  86 E6        30.05F
NEWPORT        CLOUDY    57  53  86 MISG      30.04  FOG
WALNUT RIDGE   MOCLDY    55  48  76 E7        30.04F VSB 1
BLYTHEVILLE    CLEAR     59  50  72 SE7       30.07F
$$

ARZ022-023-033-042-044-200800-
CENTRAL ARKANSAS

CITY           SKY/WX    TMP DP  RH WIND       PRES   REMARKS
LITTLE ROCK    MOCLDY    56  56 100 CALM      30.02R
N LITTLE ROCK    N/A     62  57  83 SE8       30.03R
JACKSONVILLE   PTCLDY    55  54  99 CALM      30.02R
SEARCY         PTCLDY    58  56  93 E5        30.04F
HOT SPRINGS    CLOUDY    60  55  83 E6        30.00R
RUSSELLVILLE   CLOUDY    64  56  75 E5        29.99R
$$

ARZ036-200800-
EAST ARKANSAS

CITY           SKY/WX    TMP DP  RH WIND       PRES   REMARKS
WEST MEMPHIS   CLEAR     57  51  80 SE6       30.05F
$$

ARZ050-053-066-070-073-200800-
SOUTHWEST ARKANSAS

CITY           SKY/WX    TMP DP  RH WIND       PRES   REMARKS
CAMDEN         CLOUDY    55  50  82 CALM      30.00R
TEXARKANA      CLOUDY    65  58  78 SE9       29.96S
EL DORADO      CLOUDY    63  51  65 SE6       30.00S
DE QUEEN       CLOUDY    62  57  83 E7        29.93F
$$

ARZ056-057-069-200800-
SOUTHEAST ARKANSAS

CITY           SKY/WX    TMP DP  RH WIND       PRES   REMARKS
PINE BLUFF     CLOUDY    58  54  86 SE8       30.03R
STUTTGART      PTCLDY    63  48  59 SE10      30.04R
MONTICELLO     PTCLDY    60  55  83 CALM      30.04R

$$






USA.gov is the U.S. government's official web portal to all federal, state and local government web resources and services.